Location: Mococo
(38.0255°N, 122.1161°W)
Time: 10:45:27
(UTC+00:00)

Daily predictions for brighter satellites

Satellite Brightness Start Highest point End
(mag) Time Altitude Azimuth Time Altitude Azimuth Time Altitude Azimuth
Cosmos 2344 4.2 12:10:38 34° NNW 12:15:06 75° ENE 12:26:50 10° SE
COSMOS 2455 3.2 12:23:00 60° SE 12:23:22 61° ESE 12:29:18 10° NE
Cosmos 1934 Rocket 4.4 12:25:03 10° S 12:30:58 58° E 12:37:01 10° NNE
Cosmos 1486 Rocket 4.3 12:36:43 58° SE 12:37:25 65° ESE 12:42:40 10° NNE
Cosmos 2227 Rocket 3.1 12:34:07 18° N 12:38:05 47° ENE 12:43:30 10° SE
BREEZE-M DEB (TANK) 4.1 12:39:20 50° NW 12:39:45 51° NNW 12:44:47 10° NE
Meteor 2-16 Rocket 4.4 12:37:16 10° N 12:43:23 79° E 12:49:30 10° S
SJ-11-01 4.2 12:47:22 10° NNE 12:52:02 83° ESE 12:52:13 80° SE
Meteor 2-8 Rocket 4.3 12:51:28 51° SW 12:53:01 70° W 12:59:11 10° N
Meteor 2-21 Rocket 4.3 12:48:12 10° NNW 12:54:17 73° W 13:00:19 10° S
CZ-2C R/B 4.4 12:50:20 10° N 12:51:17 16° N 12:51:17 16° N
Cosmos 1980 Rocket 2.1 12:59:46 27° SSW 13:02:59 86° ESE 13:08:36 10° NNE
Cosmos 836 Rocket 4.4 13:03:46 23° NNW 13:07:10 87° WSW 13:12:22 10° SSE
Meteor 1-11 4.2 13:05:33 10° N 13:11:26 86° W 13:17:17 10° S
Cosmos 1697 Rocket 3.5 13:14:44 32° NW 13:14:44 32° NW 13:19:08 10° N
SL-4 R/B 3.3 13:18:10 23° N 13:19:20 28° NNE 13:22:35 10° E
FengYun 1-2 T 4.2 13:14:47 10° N 13:20:07 55° WNW 13:25:26 10° SSW
SKYMED 2 3.7 13:17:00 10° SSE 13:21:19 73° ENE 13:25:39 10° N
Cosmos 2297 Rocket 3.4 13:24:25 23° SW 13:24:25 23° SW 13:27:16 10° SSW
Cosmos 990 Rocket 4.3 13:17:38 10° S 13:22:47 68° ESE 13:27:59 10° NNE
NOSS 3-1 (C) 2.8 13:23:41 41° WSW 13:25:02 59° NW 13:30:13 10° NNE
Exosat Rocket 3.4 13:26:05 10° NNW 13:31:27 72° WSW 13:36:24 10° SSE
NOSS 3-1 (A) 3.5 13:27:26 10° SSW 13:31:43 53° ESE 13:36:40 10° NE
Cosmos 1908 Rocket 3.4 13:30:47 10° S 13:35:05 78° W 13:39:29 10° N
Cosmos 2219 4.0 13:31:53 10° NNW 13:37:28 52° ENE 13:42:58 10° SE
USA 215 4.2 13:32:27 10° ESE 13:38:34 43° NNE 13:44:42 10° NW
H-2A R/B 4.1 13:37:00 10° N 13:39:51 29° NW 13:39:51 29° NW
Cosmos 1812 1.8 13:41:45 10° S 13:44:07 65° E 13:46:29 10° NNE
IRS-1D 3.6 13:43:33 10° N 13:48:36 54° WNW 13:53:31 10° SSW
Cosmos 1484 Rocket 3.8 13:46:43 10° NNE 13:50:03 43° E 13:53:24 10° S
Cosmos 2123 Rocket 4.5 13:44:46 10° NNW 13:50:19 35° W 13:55:49 10° SSW
Cosmos 2263 Rocket 2.1 13:45:47 10° NNW 13:51:27 72° WSW 13:57:01 10° SSE
ISS -3.9 13:50:36 19° SW 13:52:49 89° NW 13:56:10 10° NE
Cosmos 2221 Rocket 3.5 13:48:22 10° NNW 13:52:52 67° W 13:57:20 10° S
Cosmos 1503 Rocket 4.4 13:48:35 10° SW 13:53:22 38° WNW 13:58:14 10° N
IGS 5A 3.4 13:51:58 10° NNE 13:55:57 84° ESE 13:59:54 10° S
Intercosmos 25 Rocket 3.5 13:54:32 10° NNW 13:57:26 33° W 14:00:28 10° SSW
Cosmos 2346 Rocket 4.4 13:52:18 10° N 13:58:28 78° W 14:04:32 10° S
Aureole 1 Rocket 4.4 13:55:08 10° SSW 14:02:33 82° ESE 14:09:18 10° NNE
Cosmos 2369 3.8 13:57:21 10° SW 14:02:55 57° WNW 14:08:29 10° NNE
Cosmos 1025 Rocket 3.6 14:01:09 10° NNW 14:05:05 34° W 14:09:00 10° SSW
Cosmos 1400 Rocket 2.8 14:01:52 10° SSW 14:05:32 51° W 14:09:16 10° N
FALCON 9 R/B 1.3 14:04:24 15° WSW 14:06:10 34° S 14:08:15 10° ESE
Cosmos 2082 3.9 14:00:54 10° NNW 14:06:36 75° ENE 14:12:15 10° SSE
H-2A ROCKET BODY 4.1 13:48:53 10° WSW 14:07:41 45° S 14:12:58 10° ESE
Cosmos 1602 3.7 14:06:54 10° N 14:09:38 52° E 14:12:20 10° SSE
COSMOS 2455 4.0 14:06:11 14° W 14:09:42 23° NW 14:14:23 10° N
GP-B 3.0 14:05:36 10° N 14:09:58 76° W 14:14:19 10° S
SL-16 R/B 2.7 14:06:45 10° S 14:12:21 66° ESE 14:17:58 10° NNE
Cosmos 2100 Rocket 4.3 14:07:19 10° S 14:13:40 77° E 14:20:01 10° N
Cosmos 2227 Rocket 3.3 14:17:29 10° NW 14:21:43 22° W 14:25:55 10° SSW
Cosmos 2333 Rocket 2.9 14:16:28 10° S 14:22:08 62° ESE 14:27:48 10° NNE
Cosmos 1300 Rocket 4.0 14:18:24 10° SSW 14:22:29 38° WNW 14:26:38 10° N
COSMO-SKYMED 1 3.0 14:19:12 10° SSW 14:22:58 35° W 14:26:46 10° NNW
Helios 1A Rocket 2.5 14:22:35 10° SSE 14:25:51 79° ENE 14:29:07 10° N
ARIANE 5 R/B 3.9 14:25:32 10° NNE 14:30:17 44° E 14:35:01 10° S
Landsat 7 3.8 14:29:33 10° NNE 14:34:14 90° W 14:38:52 10° SSW
